TimePDT,TemperatureF,Dew PointF,Humidity,Sea Level PressureIn,VisibilityMPH,Wind Direction,Wind SpeedMPH,Gust SpeedMPH,PrecipitationIn,Events,Conditions,WindDirDegrees,DateUTC
12:04 AM,39.2,35.6,87,30.28,6.0,Calm,Calm,-,0.01,Rain,Light Rain,0,2013-03-11 07:04:00
12:56 AM,37.9,37.0,97,30.31,9.0,Variable,3.5,-,0.02,Rain,Light Rain,0,2013-03-11 07:56:00
1:56 AM,37.9,36.0,93,30.32,10.0,Variable,4.6,-,0.00,Rain,Light Rain,0,2013-03-11 08:56:00
2:32 AM,37.4,35.6,93,30.28,10.0,Variable,4.6,-,0.00,,Overcast,0,2013-03-11 09:32:00
2:44 AM,37.4,35.6,93,30.28,10.0,Variable,5.8,-,0.00,,Overcast,0,2013-03-11 09:44:00
2:56 AM,37.9,36.0,93,30.31,10.0,Variable,4.6,-,0.00,,Overcast,0,2013-03-11 09:56:00
3:04 AM,37.4,35.6,93,30.28,10.0,West,5.8,-,N/A,,Overcast,270,2013-03-11 10:04:00
3:56 AM,37.9,36.0,93,30.31,10.0,WNW,4.6,-,N/A,,Overcast,290,2013-03-11 10:56:00
4:56 AM,37.9,36.0,93,30.32,10.0,Calm,Calm,-,N/A,,Overcast,0,2013-03-11 11:56:00
5:56 AM,37.9,35.1,89,30.33,10.0,Variable,3.5,-,N/A,,Overcast,0,2013-03-11 12:56:00
6:56 AM,37.0,35.1,93,30.34,10.0,Calm,Calm,-,N/A,,Overcast,0,2013-03-11 13:56:00
7:03 AM,37.4,33.8,87,30.28,10.0,Calm,Calm,-,N/A,,Overcast,0,2013-03-11 14:03:00
7:32 AM,37.4,35.6,93,30.28,10.0,Calm,Calm,-,N/A,,Overcast,0,2013-03-11 14:32:00
7:56 AM,37.0,34.0,89,30.33,10.0,Variable,3.5,-,N/A,,Overcast,0,2013-03-11 14:56:00
8:23 AM,37.4,35.6,93,30.29,10.0,Calm,Calm,-,N/A,,Overcast,0,2013-03-11 15:23:00
8:56 AM,37.0,34.0,89,30.35,10.0,Variable,3.5,-,N/A,,Overcast,0,2013-03-11 15:56:00
9:56 AM,37.9,34.0,86,30.35,10.0,Calm,Calm,-,N/A,,Overcast,0,2013-03-11 16:56:00
10:56 AM,39.9,35.1,83,30.34,10.0,Calm,Calm,-,N/A,,Overcast,0,2013-03-11 17:56:00
11:13 AM,39.2,33.8,81,30.29,10.0,Calm,Calm,-,N/A,,Overcast,0,2013-03-11 18:13:00
11:56 AM,42.1,34.0,73,30.33,10.0,Calm,Calm,-,N/A,,Overcast,0,2013-03-11 18:56:00
12:13 PM,42.8,33.8,70,30.29,10.0,Calm,Calm,-,N/A,,Overcast,0,2013-03-11 19:13:00
12:56 PM,44.1,32.0,63,30.32,10.0,Calm,Calm,-,N/A,,Overcast,0,2013-03-11 19:56:00
1:56 PM,44.1,30.9,60,30.30,10.0,Variable,3.5,-,N/A,,Overcast,0,2013-03-11 20:56:00
2:56 PM,45.0,33.1,63,30.28,10.0,Variable,4.6,-,N/A,,Overcast,0,2013-03-11 21:56:00
3:56 PM,45.0,30.9,58,30.28,10.0,Calm,Calm,-,N/A,,Overcast,0,2013-03-11 22:56:00
4:56 PM,43.0,32.0,65,30.29,10.0,Variable,3.5,-,0.00,,Overcast,0,2013-03-11 23:56:00
5:47 PM,39.2,35.6,87,30.24,9.0,Calm,Calm,-,N/A,,Overcast,0,2013-03-12 00:47:00
5:56 PM,39.9,36.0,86,30.29,9.0,Calm,Calm,-,N/A,,Overcast,0,2013-03-12 00:56:00
6:19 PM,39.2,35.6,87,30.24,10.0,Calm,Calm,-,N/A,,Overcast,0,2013-03-12 01:19:00
6:56 PM,37.9,35.1,89,30.29,10.0,Calm,Calm,-,N/A,,Overcast,0,2013-03-12 01:56:00
7:52 PM,37.4,35.6,93,30.22,10.0,Calm,Calm,-,N/A,,Overcast,0,2013-03-12 02:52:00
7:56 PM,37.0,35.1,93,30.28,10.0,Calm,Calm,-,N/A,,Overcast,0,2013-03-12 02:56:00
8:56 PM,37.0,35.1,93,30.28,10.0,Calm,Calm,-,0.00,Rain,Light Rain,0,2013-03-12 03:56:00
9:56 PM,37.0,35.1,93,30.28,10.0,Calm,Calm,-,0.00,,Overcast,0,2013-03-12 04:56:00
10:56 PM,36.0,34.0,93,30.26,5.0,Calm,Calm,-,0.00,,Overcast,0,2013-03-12 05:56:00
11:56 PM,37.0,35.1,93,30.25,3.0,Calm,Calm,-,N/A,,Overcast,0,2013-03-12 06:56:00